     2              OBSERVATION DATA    GPS                 RINEX VERSION / TYPE
teqc 1998Mar9 19980907 20:09:29UTC                          PGM / RUN BY / DATE
                                                            COMMENT
BIT 2 OF LLI FLAGS DATA COLLECTED UNDER A-S CONDITION       COMMENT
BIT 2 OF LLI FLAGS DATA COLLECTED UNDER A-S CONDITION       COMMENT
Original Marker Name: SPR2                                  COMMENT
Campaign Name: Ventura Basin 1992                           COMMENT
4-Character Station Name: SPR2                              COMMENT
6-Character Antenna Code: TRMSST                            COMMENT
Vertical Measurement Point: BGP                             COMMENT
Vertical Offset to Rinex Ref. Point: 0.0597                 COMMENT
Radial Measurement Point: NGP                               COMMENT
Radial Offset to Rinex Ref. Point: 0.2334                   COMMENT
Antenna Height from Field Measurement: 1.3520 m             COMMENT
Original XYZ: -2554493.7494 -4608638.3465 3582117.5017      COMMENT
New XYZ position is based on association with SCEC monument COMMENT
E1E9H7D4+0012. Position of that monument is believed to be  COMMENT
valid to within 1 m horizontally; vertical accuracy         COMMENT
should be no worse than 3-times this value.                 COMMENT
                                                            COMMENT
Revised Rinex header created by UCSD GPS archive for        COMMENT
GSAC on 25-May-2001 (2001:145) 15:20:04 GMT                 COMMENT
For assistance contact dagnew@ucsd.edu or hjohnson@ucsd.edu COMMENT
                                                            COMMENT
SANTA PAULA NCMN NO. 2                                      MARKER NAME
UNKNOWN OBSERVER MIT                                        OBSERVER / AGENCY
492 TRIMBLE 4000 SST NP 4.64 / SP 4.20                      REC # / TYPE / VERS
31 TR 4000SST L1/L2 GEO                                     ANT # / TYPE
 -2554488.6366 -4608639.1570  3582109.4464                  APPROX POSITION XYZ
        1.2720        0.0000        0.0000                  ANTENNA: DELTA H/E/N
     1     1     0                                          WAVELENGTH FACT L1/2
     3    C1    L1    L2                                    # / TYPES OF OBSERV
     0                                                      INTERVAL
  1992     5    25    17    16    0.000000                  TIME OF FIRST OBS
  1992     5    25    18    17   30.000000                  TIME OF LAST OBS
                                                            END OF HEADER
 92  5 25 17 16  0.0000000  0  6G18G28G16G19G11G 2
  20823870.156          -0.70017
  24018178.3204         -0.77655
  23819740.1884         -0.95855
  20859913.664          -0.36517
  23328645.0634         -0.89256
  22681902.1334         -0.83956
 92  5 25 17 16 30.0000000  0  6G18G28G16G19G11G 2
  20831129.383       38146.901 7        -0.13133
  24025621.828       39141.765 5
  23811895.664      -41232.337 5
  20858307.7344      -8436.46546        -0.23672
  23319314.1724     -49031.53946
  22665473.1644     -86342.06146
 92  5 25 17 17  0.0000000  0  6G18G28G16G19G11G 2
  20838470.273       76726.383 7     30061.76723
  24033156.5704      78722.85945        -0.04471
  23804136.5944     -81992.65845        -0.01671
  20856729.3134     -16715.19746     -6451.21462
  23310074.008      -97588.830 6        -0.11331
  22649081.0234    -172484.11846        -0.33071
 92  5 25 17 17 30.0000000  0  6G18G28G16G19G11G 2
  20845891.2274     115725.46547     60450.61163
  24040773.2424     118738.28845     31180.75161
  23796470.2114    -122290.12845    -31400.64261
  20855180.164      -24860.888 6    -12798.53222
  23300925.430     -145672.873 6    -37468.15821
  22632726.5704    -258420.39646    -66963.60061
 92  5 25 17 18  0.0000000  0  6G18G28G16G19G11G 2
  20853390.6414     155130.12047     91155.47963
  24048464.7034     159174.97445     62689.80061
  23788887.2114    -162132.12545    -62446.36661
  20853652.7734     -32889.02646    -19054.23762
  23291864.023     -193291.624 6    -74573.64921
  22616415.1094    -344145.54947   -133762.35361
 92  5 25 17 18 30.0000000  0  6G18G28G16G19G11G 2
  20860969.5474     194959.22247    122191.07563
  24056242.125      200027.431 5     94522.83421
  23781395.977     -201500.430 5    -93122.98321
  20852150.3524     -40785.95446    -25207.70162
  23282892.7424    -240432.37846   -111306.66461
  22600143.9384    -429639.05846   -200380.60462
 92  5 25 17 19  0.0000000  0  6G18G28G16G19G11G 2
  20868623.695      235186.590 7    153537.02423
  24064092.359      241280.932 5    126668.37521
  23773992.2114    -240408.25645   -123440.77461
  20850671.289      -48560.576 6    -31265.86922
  23274010.148     -287111.736 6   -147680.14921
  22583918.1564    -514913.43446   -266828.11062
 92  5 25 17 19 30.0000000  0  6G18G28G16G19G11G 2
  20876354.2664     275802.80247    185185.96163
  24072020.336      282947.511 5    159135.78821
  23766677.1884    -278850.36745   -153395.64761
  20849214.0394     -56214.59946    -37230.05162
  23265216.469     -333323.648 6   -183689.39921
  22567733.7114    -599961.94246   -333099.61261
 92  5 25 17 20  0.0000000  0  6G18G28G16G19G11G 2
  20884157.875      316818.771 7    217146.41423
  24080029.7194     325024.61945    191923.06761
  23759453.0474    -316823.04645   -182984.76561
  20847783.8284     -63734.04846    -43089.37162
  23256509.6644    -379063.85546   -219331.08161
  22551591.0944    -684788.49846   -399198.15961
 92  5 25 17 20 30.0000000  0  6G18G28G16G19G11G 2
  20892041.3754     358243.47547    249425.33563
  24088116.2814     367524.36345    225039.67461
  23752316.0474    -354315.38345   -212199.57761
  20846379.9534     -71108.59947    -48835.79362
  23247899.8524    -424323.13346   -254598.02461
  22535488.3204    -769403.47046   -465131.84262
 92  5 25 17 21  0.0000000  0  6G18G28G16G19G11G 2
  20900001.859      400070.779 7    282017.99223
  24096277.5474     410440.80345    258480.97061
  23745274.4224    -391321.75845   -241035.70861
  20845005.867      -78347.232 6    -54476.30122
  23239377.906     -469106.048 6   -289493.78421
  22519426.2974    -853812.92946   -530905.38061
 92  5 25 17 21 30.0000000  0  6G18G28G16G19G11G 2
  20908037.4064     442300.74147    314924.40963
  24104526.375      453763.938 5    292239.18421
  23738326.4144    -427844.37946   -269494.88161
  20843649.6804     -85462.28146    -60020.49962
  23230948.0944    -513408.35446   -324015.04161
  22503406.6024    -938003.14746   -596508.07661
 92  5 25 17 22  0.0000000  0  6G18G28G16G19G11G 2
  20916151.8284     484944.96547    348153.61363
  24112851.977      497494.679 5    326315.01621
  23731468.2894    -463877.50046   -297572.65161
  20842319.8984     -92442.11946    -65459.34162
  23222611.2894    -557220.57246   -358154.40761
  22487429.4614   -1021963.90247   -661931.96862
 92  5 25 17 22 30.0000000  0  6G18G28G16G19G11G 2
  20924345.742      527999.350 7    381702.43223
  24121244.844      541614.151 5    360693.73421
  23724704.047     -499428.679 6   -325274.88121
  20841016.0634     -99300.51246    -70803.54862
  23214365.2664    -600544.73546   -391913.49761
  22471496.3364   -1105688.34446   -727171.72462
 92  5 25 17 23  0.0000000  0  6G18G28G16G19G11G 2
  20932615.250      571455.681 7    415564.45623
  24129704.5394     586114.56545    395369.29461
  23718028.789     -534511.101 6   -352611.83821
  20839733.4534    -106041.99246    -76056.65462
  23206213.8754    -643380.87746   -425292.28061
  22455613.547    -1189157.615 6   -792212.64122
 92  5 25 17 23 30.0000000  0  6G18G28G16G19G11G 2
  20940959.977      615304.734 7    449732.50123
  24138254.258      631004.816 5    430348.61321
  23711438.2344    -569132.28546   -379589.39161
  20838475.0004    -112650.86146    -81206.41962
  23198156.2194    -685723.03746   -458286.15061
  22439777.0314   -1272378.27546   -857059.82162
 92  5 25 17 24  0.0000000  0  6G18G28G16G19G11G 2
  20949376.125      659540.732 7    484202.06623
  24146869.938      676282.790 5    465630.07521
  23704939.2424    -603294.05746   -406208.95661
  20837243.9304    -119123.66846    -86250.17362
  23190193.3204    -727577.73046   -490900.18561
  22423981.7114   -1355375.04646   -921732.55462
 92  5 25 17 24 30.0000000  0  6G18G28G16G19G11G 2
  20957870.422      704169.931 7    518978.02923
  24155561.648      721978.091 5    501236.71821
  23698529.531     -636977.006 6   -432455.42221
  20836041.6954    -125453.58546    -91182.58062
  23182321.8524    -768933.29646   -523125.27961
  22408232.7344   -1438144.38947   -986228.07762
 92  5 25 17 25  0.0000000  0  6G18G28G16G19G11G 2
  20966434.6094     749178.53247    554049.61763
  24164348.8594     768112.18145    537185.26261
  23692211.195     -670177.416 6   -458325.89721
  20834864.2424    -131634.96646    -95999.24762
  23174547.8284    -809790.32746   -554961.90961
  22392521.5164   -1520703.55647  -1050559.81862
 92  5 25 17 25 30.0000000  0  6G18G28G16G19G11G 2
  20975072.0784     794569.46447    589419.11463
  24173207.711      814682.116 5    573473.41021
  23685987.3834    -702885.19446   -483812.50461
  20833716.0314    -137660.89746   -100694.77662
  23166870.8834    -850141.87846   -586404.64861
  22376850.0004   -1603057.34047  -1114731.53262
 92  5 25 17 26  0.0000000  0  6G18G28G16G19G11G 2
  20983785.891      840356.875 7    625097.56123
  24182151.805      861685.880 5    610099.61621
  23679859.5784    -735087.30546   -508905.06361
  20832598.0164    -143539.51746   -105275.52162
  23159286.602     -889984.554 6   -617450.87821
  22361220.9454   -1685190.05347  -1178730.98162
 92  5 25 17 26 30.0000000  0  6G18G28G16G19G11G 2
  20992575.4304     886546.34947    661089.31063
  24191175.078      909121.531 5    647062.36421
  23673829.555     -766779.057 6   -533599.94321
  20831506.3204    -149263.07547   -109735.44962
  23151803.8754    -929309.14446   -648093.40261
  22345639.6644   -1767073.36547  -1242536.08862
 92  5 25 17 27  0.0000000  0  6G18G28G16G19G11G 2
  21001439.828      933127.628 7    697386.36123
  24200278.5784     956946.98645    684328.83661
  23667892.477     -797979.092 5   -557911.66921
  20830453.3364    -154825.20746   -114069.58962
  23144419.0164    -968120.58546   -678336.06661
  22330105.9694   -1848699.03446  -1306140.43962
 92  5 25 17 27 30.0000000  0  6G18G28G16G19G11G 2
  21010381.3754     980114.54247    733999.48063
  24209451.9844    1005146.51045    721886.80561
  23662049.9304    -828683.25945   -581837.00761
  20829423.5394    -160223.76446   -118276.25962
  23137132.5004   -1006412.16646   -708173.64761
  22314624.9844   -1930050.02946  -1369530.75162
 92  5 25 17 28  0.0000000  0  6G18G28G16G19G11G 2
  21019396.344     1027503.188 7    770925.65223
  24218696.906     1053719.399 5    759735.67921
  23656297.9694    -858904.62645   -605386.13861
  20828424.0164    -165468.62346   -122363.17262
  23129944.4144   -1044189.48546   -737610.50261
  22299196.4534   -2011133.14947  -1432712.32162
 92  5 25 17 28 30.0000000  0  6G18G28G16G19G11G 2
  21028494.625     1075301.763 7    808171.26823
  24228007.273     1102667.405 4    797876.84721
  23650634.7814    -888648.90145   -628563.50161
  20827460.6724    -170539.35646   -126314.39662
  23122854.5474   -1081436.90546   -766634.45461
  22283818.6644   -2091945.64547  -1495683.03362
 92  5 25 17 29  0.0000000  0  6G18G28G16G19G11G 2
  21037669.227     1123516.994 7    845741.53423
  24237395.3134    1151992.62745    836311.94961
  23645065.555     -917919.701 5   -651371.93921
  20826529.6334    -175437.92946   -130131.47862
  23115868.5864   -1118155.24446   -795246.12461
  22268487.5634   -2172509.49647  -1558459.99862
 92  5 25 17 29 30.0000000  0  6G18G28G16G19G11G 2
  21046924.813     1172152.880 7    883639.58623
  24246861.3984    1201715.82945    875057.20461
  23639585.6564    -946719.59445   -673813.42561
  20825624.2424    -180180.16946   -133826.72962
  23108980.9694   -1154346.90946   -823447.40161
  22253200.5084   -2252839.76747  -1621054.94462
 92  5 25 17 30  0.0000000  0  6G18G28G16G19G11G 2
  21056257.859     1221203.774 7    921861.01623
  24256395.305     1251836.910 5    914112.49121
  23634193.141     -975056.194 5   -695893.90721
  20824751.0474    -184769.41246   -137402.77262
  23102193.328    -1190011.938 6   -851238.31621
  22237957.8204   -2332939.68747  -1683470.40162
 92  5 25 17 30 30.0000000  0  6G18G28G16G19G11G 2
  21065672.336     1270675.945 7    960410.71823
  24266006.0864    1302358.89545    953480.15761
  23628895.7114   -1002900.59845   -717590.87461
  20823907.8524    -189197.92346   -140853.56562
  23095508.2194   -1225140.90546   -878611.51761
  22222761.7734   -2412796.50247  -1745696.42462
 92  5 25 17 31  0.0000000  0  6G18G28G16G19G11G 2
  21075162.953     1320548.991 7    999272.79523
  24275701.141     1353278.572 5    993157.72321
  23623692.2424   -1030239.79845   -738894.17461
  20823091.2034    -193486.67246   -144195.45562
  23088927.469    -1259740.740 6   -905572.41121
  22207611.344    -2492412.153 7  -1807734.52422
 92  5 25 17 31 30.0000000  0  6G18G28G16G19G11G 2
  21084726.078     1370802.795 7   1038431.56823
  24285464.0474    1404589.44445   1033140.11161
  23618585.938    -1057068.702 5   -759799.83921
  20822300.523     -197648.388 6   -147438.37522
  23082441.211    -1293812.064 6   -932121.46021
  22192507.1884   -2571781.72547  -1869580.87362
 92  5 25 17 32  0.0000000  0  6G18G28G16G19G11G 2
  21094362.2424    1421436.34747   1077886.22763
  24295300.1094    1456287.09445   1073423.89461
  23613583.0554   -1083371.82245   -780295.78561
  20821535.930     -201671.458 6   -150573.24922
  23076059.1024   -1327348.89246   -958254.03861
  22177451.2814   -2650901.90947  -1931232.89962
 92  5 25 17 32 30.0000000  0  6G18G28G16G19G11G 2
  21104068.9614    1472447.22547   1117634.90363
  24305213.8834    1508385.17045   1114019.68361
  23608677.0554   -1109144.56245   -800378.44861
  20820799.1804    -205540.27046   -153587.91962
  23069779.305    -1360349.133 6   -983968.48221
  22162443.6254   -2729774.35747  -1992691.87462
 92  5 25 17 33  0.0000000  0  6G18G28G16G19G11G 2
  21113848.586     1523846.122 7   1157685.95123
  24315211.8524    1560894.96645   1154936.28261
  23603870.555    -1134406.405 5   -820063.03321
  20820093.1024    -209242.04546   -156472.44162
  23063603.2894   -1392808.27146  -1009261.29061
  22147481.5314   -2808396.91847  -2053956.13562
 92  5 25 17 33 30.0000000  0  6G18G28G16G19G11G 2
  21123706.5944    1575643.42347   1198047.46063
  24325275.5394    1613811.72545   1196170.02161
  23599157.0634   -1159171.85745   -839360.80861
  20819424.9844    -212768.35446   -159220.22962
  23057529.1174   -1424730.10646  -1034135.41361
  22132566.1254   -2886769.96447  -2115025.97662
 92  5 25 17 34  0.0000000  0  6G18G28G16G19G11G 2
  21133640.7034    1627851.80547   1238729.29263
  24335424.3754    1667131.97845   1237718.20661
  23594537.820    -1183438.164 5   -858269.63121
  20818791.6724    -216103.25546   -161818.86662
  23051557.336    -1456109.044 6  -1058586.50421
  22117704.6564   -2964875.27247  -2175887.18762
 92  5 25 17 34 30.0000000  0  6G18G28G16G19G11G 2
  21143653.219     1680468.923 7   1279729.61123
  24345645.422     1720841.275 5   1279569.49021
  23590016.617    -1207214.811 5   -876796.92521
  20818187.4924    -219256.99746   -164276.33562
  23045690.008    -1486944.770 6  -1082614.32321
  22102894.1954   -3042701.37947  -2236530.83962
 92  5 25 17 35  0.0000000  0  6G18G28G16G19G11G 2
  21153740.555     1733477.313 7   1321034.81723
  24355932.3364    1774901.60745   1321694.30861
  23585581.289    -1230518.266 5   -894955.47921
  20817617.008     -222265.779 6   -166620.85522
  23039921.6644   -1517249.09246  -1106228.06061
  22088135.9384   -3120255.41847  -2296962.47962
 92  5 25 17 35 30.0000000  0  6G18G28G16G19G11G 2
  21163901.6564    1786869.18847   1362638.82063
  24366283.2504    1829299.19545   1364081.98261
  23581241.9534   -1253325.59245   -912727.46161
  20817071.898     -225131.073 6   -168853.57022
  23034259.766    -1547011.420 6  -1129419.46021
  22073431.9384   -3197531.51647  -2357177.55062
 92  5 25 17 36  0.0000000  0  6G18G28G16G19G11G 2
  21174133.508     1840638.849 7   1404537.19823
  24376700.1954    1884037.08145   1406734.76261
  23576994.156    -1275636.454 5   -930112.56321
  20816554.1024    -227852.52846   -170974.20462
  23028698.773    -1576225.377 6  -1152183.54721
  22058779.2974   -3274535.46547  -2417180.55262
 92  5 25 17 36 30.0000000  0  6G18G28G16G19G11G 2
  21184436.336     1894783.782 7   1446728.00623
  24387187.8754    1939135.21045   1449668.26461
  23572847.359    -1297450.864 5   -947110.83921
  20816064.4304    -230427.83946   -172980.96062
  23023245.4614   -1604882.59746  -1174513.83261
  22044173.1414   -3351283.88247  -2476984.43662
 92  5 25 17 37  0.0000000  0  6G18G28G16G19G11G 2
  21194810.438     1949298.193 7   1489206.72723
  24397739.664     1994598.381 5   1492886.23321
  23568783.117    -1318775.893 5   -963727.76321
  20815605.0944    -232850.50646   -174868.77062
  23017897.656    -1632989.548 6  -1196415.32921
  22029615.4384   -3427786.58647  -2536596.85962
 92  5 25 17 37 30.0000000  0  6G18G28G16G19G11G 2
  21205257.211     2004202.037 7   1531988.89023
  24408367.9614    2050452.49845   1536408.79461
  23564821.656    -1339609.545 5   -979961.79921
  20815177.7734    -235093.18546   -176616.32962
  23012655.898    -1660540.690 6  -1217883.71221
  22015103.5704   -3504038.12247  -2596013.56362
 92  5 25 17 38  0.0000000  0  6G18G28G16G19G11G 2
  21215781.8674    2059499.33647   1575077.64363
  24419075.070     2106721.483 5   1580254.60821
  23560950.1174   -1359961.34945   -995820.38461
  20814782.7894    -237153.14046   -178221.51362
  23007518.797    -1687533.276 6  -1238916.86821
  22000643.969    -3580030.632 7  -2655228.42922
 92  5 25 17 38 30.0000000  0  6G18G28G16G19G11G 2
  21226377.781     2115185.574 7   1618469.46523
  24429861.805     2163387.625 5   1624409.92021
  23557168.6884   -1379827.23645  -1011300.33561
  20814424.922     -239037.282 6   -179689.70222
  23002488.1174   -1713975.58246  -1259521.24961
  21986231.4924   -3655762.58747  -2714240.26962
 92  5 25 17 39  0.0000000  0  6G18G28G16G19G11G 2
  21237048.930     2171262.942 7   1662166.06323
  24440717.656     2220435.112 4   1668862.36621
  23553480.7274   -1399205.16345  -1026400.04161
  20814097.953     -240738.544 6   -181015.38322
  22997559.3134   -1739869.29146  -1279698.14361
  21971873.2194   -3731222.75047  -2773040.32262
 92  5 25 17 39 30.0000000  0  6G18G28G16G19G11G 2
  21247792.578     2227724.046 7   1706161.68123
  24451644.219     2277860.467 4   1713609.25421
  23549890.055    -1418085.077 5  -1041111.68621
  20813813.5084    -242267.64246   -182206.90962
  22992735.656    -1765208.833 6  -1299443.21321
  21957563.1254   -3806419.86847  -2831635.41162
 92  5 25 17 40  0.0000000  0  6G18G28G16G19G11G 2
  21258605.7584    2284546.57847   1750438.92063
  24462643.445     2335642.111 4   1758633.76921
  23546391.906    -1436464.516 5  -1055433.37321
  20813551.9384    -243634.54246   -183272.04062
  22988020.8594   -1789993.98946  -1318756.31061
  21943302.3524   -3881360.07547  -2890030.32262
 92  5 25 17 40 30.0000000  0  6G18G28G16G19G11G 2
  21269485.9694    2341724.31447   1794992.93663
  24473696.461     2393759.160 3   1803919.62921
  23542987.750    -1454341.704 5  -1069363.67821
  20813321.8594    -244831.11846   -184204.45863
  22983409.0164   -1814230.63946  -1337641.99461
  21929091.3204   -3956049.54447  -2948229.84162
 92  5 25 17 41  0.0000000  0  6G18G28G16G19G11G 2
  21280435.9694    2399258.21747   1839824.48863
  24484817.156     2452223.502 3   1849476.10521
  23539684.0554   -1471715.90945  -1082902.05661
  20813127.6644    -245854.71346   -185002.08263
  22978904.1644   -1837909.72946  -1356093.21161
  21914924.5634   -4030485.29747  -3006231.66562
 92  5 25 17 41 30.0000000  0  6G18G28G16G19G11G 2
  21291452.2664    2457158.38447   1884941.44363
  24496017.3054    2511039.52543   1895306.62761
  23536475.289    -1488567.977 5  -1096033.56921
  20812968.6174    -246706.51546   -185665.83963
  22974507.0394   -1861016.29046  -1374098.31461
  21900810.3674   -4104655.36347  -3064026.45862
 92  5 25 17 42  0.0000000  0  6G18G28G16G19G11G 2
  21302542.2034    2515433.87147   1930350.84663
  24507277.7734    2570210.71844   1941413.89961
  23533368.258    -1504893.747 5  -1108754.97321
  20812838.6564    -247373.88146   -186185.87363
  22970220.9614   -1883543.55846  -1391652.02361
  21886753.5394   -4178531.85347  -3121592.48862
 92  5 25 17 42 30.0000000  0  6G18G28G16G19G11G 2
  21313705.0784    2574087.57647   1976054.97263
  24518602.930     2629729.942 4   1987792.35721
  23530361.3364   -1520709.30145  -1121078.83661
  20812742.9694    -247876.63946   -186577.65763
  22966041.9614   -1905499.03046  -1408760.18561
  21872747.9224   -4252124.35147  -3178937.22262
 92  5 25 17 43  0.0000000  0  6G18G28G16G19G11G 2
  21324937.3524    2633117.57947   2022052.32163
  24529996.242     2689593.440 4   2034439.09021
  23527441.3754   -1536031.92045  -1133018.59361
  20812672.0314    -248238.68247   -186859.77963
  22961971.1094   -1926884.07146  -1425423.85861
  21858797.2734   -4325435.97447  -3236063.09662
 92  5 25 17 43 30.0000000  0  6G18G28G16G19G11G 2
  21336243.2034    2692528.75447   2068346.68062
  24541453.633     2749803.015 4   2081355.49721
  23524623.7274   -1550869.64345  -1144580.48061
  20812635.1804    -248443.79546
  22958010.9614   -1947695.39846  -1441640.48461
  21844900.8444   -4398463.26347  -3292967.41162
 92  5 25 17 44  0.0000000  0  6G18G28G16G19G11G 2
  21347621.2274    2752324.56047   2114940.75763
  24552973.2424    2810374.75044   2128554.08861
  23521890.1804   -1565228.75945  -1155769.43961
  20812629.3284    -248470.07746
  22954161.1414   -1967927.75646  -1457405.95061
  21831056.7664   -4471208.44847  -3349651.90462
 92  5 25 17 44 30.0000000  0  6G18G28G16G19G11G 2
  21359077.8914    2812522.93247   2161848.50162
  24564576.070     2871319.966 5   2176043.73321
  23519248.3364   -1579096.96845  -1166575.88661
  20812663.2424    -248298.67746
  22950421.305    -1987571.194 6  -1472712.52421
  21817266.7894   -4543681.71747  -3406124.52662
 92  5 25 17 45  0.0000000  0  6G18G28G16G19G11G 2
  21370604.9384    2873099.10447   2209050.64063
  24576240.2114    2932622.35945   2223811.66761
  23516702.6644   -1592477.95045  -1177002.64861
  20812733.9144    -247926.37146
  22946795.4534   -2006640.90646  -1487572.04661
  21803525.0314   -4615894.77847  -3462394.38162
 92  5 25 17 45 30.0000000  0  5G18G16G19G11G 2
  21382201.5634    2934045.28347   2256541.10563
  23514254.484    -1605352.936 5  -1187035.14821
  20812843.5314    -247343.96446   -186162.61263
  22943272.9774   -2025138.97546  -1501986.11661
  21789831.2424   -4687853.45547  -3518466.00362
 92  5 25 17 46  0.0000000  0  5G18G16G19G11G 2
  21393873.9614    2995374.76247   2304330.24363
  23511901.4694   -1617711.16645  -1196664.96861
  20812996.2974    -246559.43046   -185551.28763
  22939862.2734   -2043060.63546  -1515951.03661
  21776188.3054   -4759546.22747  -3574330.43762
 92  5 25 17 46 30.0000000  0  5G18G16G19G11G 2
  21405615.8444    3057083.48747   2352414.88262
  23509648.1564   -1629550.46545  -1205890.42661
  20813180.4844    -245586.60446   -184793.24363
  22936564.125    -2060403.863 6  -1529465.22621
  21762600.4144   -4830953.54647  -3629972.42862
 92  5 25 17 47  0.0000000  0  5G18G16G19G11G 2
  21417428.8594    3119159.62847   2400785.82363
  23507495.742    -1640879.267 5  -1214718.10221
  20813396.9534    -244430.94946   -183892.74063
  22933373.1334   -2077167.58346  -1542527.86061
  21749068.8444   -4902061.20647  -3685380.91662
 92  5 25 17 47 29.9990000  0  5G18G16G19G11G 2
  21429312.5344    3181611.52747   2449449.55962
  23505434.9644   -1651707.30945  -1223155.56761
  20813654.2374    -243091.52546   -182849.03663
  22930295.0034   -2093340.28046  -1555129.95361
  21735596.3554   -4972856.27347  -3740545.83462
 92  5 25 17 47 59.9990000  0  5G18G16G19G11G 2
  21441265.7454    3244428.31147   2498397.62862
  23503460.636    -1662063.451 5  -1231225.32921
  20813944.8394    -241574.29546   -181666.78663
  22927330.1124   -2108925.65246  -1567274.39861
  21722183.5584   -5043342.22847  -3795469.88062
 92  5 25 17 48 29.9990000  0  5G18G16G19G11G 2
  21453284.4874    3307581.67147   2547607.96862
  23501580.2304   -1671952.24045  -1238930.90061
  20814266.6834    -239876.89446   -180344.14463
  22924474.2144   -2123926.73646  -1578963.55261
  21708827.1674   -5113533.81547  -3850164.55762
 92  5 25 17 48 59.9990000  0  5G18G16G19G11G 2
  21465366.6514    3371072.78247   2597081.49562
  23499785.8474   -1681372.58245  -1246271.46361
  20814624.1674    -237992.53346   -178875.82663
  22921733.3624   -2138341.72346  -1590196.01061
  21695522.2224   -5183448.10747  -3904643.16462
 92  5 25 17 49 29.9990000  0  5G18G16G19G11G 2
  21477511.7224    3434894.69447   2646812.77662
  23498084.831    -1690322.061 5  -1253245.11821
  20815019.2764    -235931.87246   -177270.12063
  22919098.9484   -2152181.50246  -1600980.26661
  21682266.5344   -5253103.54847  -3958920.06562
 92  5 25 17 49 59.9990000  0  5G18G16G19G11G 2
  21489721.8004    3499060.03147   2696811.67362
  23496474.901    -1698770.720 5  -1259828.55021
  20815449.5974    -233673.40146   -175510.28563
  22916574.847    -2165439.034 6  -1611310.82821
  21669062.0264   -5322497.27547  -4012993.02962
 92  5 25 17 50 29.9990000  0  5G18G16G19G11G 2
  21502001.9874    3563596.63747   2747099.86262
  23494970.065    -1706695.937 5  -1266004.08721
  20815915.9174    -231205.56346   -173587.30563
  22914164.4254   -2178111.79746  -1621185.70561
  21655907.7924   -5391626.89947  -4066860.20562
 92  5 25 17 50 59.9990000  0  5G18G16G19G11G 2
  21514356.6514    3628507.91747   2797679.99662
  23493557.706    -1714116.087 5  -1271786.05621
  20816423.3004    -228541.26946   -171511.23363
  22911863.2304   -2190210.18646  -1630613.02561
  21642803.6834   -5460492.15447  -4120521.38462
 92  5 25 17 51 29.9990000  0  5G18G16G19G11G 2
  21526779.9874    3693803.31147   2848559.45362
  23492239.3314   -1721031.45745  -1277174.71861
  20816967.2374    -225668.62246   -169272.80863
  22909670.2694   -2201729.05146  -1639588.76361
  21629749.792    -5529081.818 7  -4173967.79822
 92  5 25 17 51 59.9990000  0  5G18G16G19G11G 2
  21539280.0734    3759487.86747   2899742.16562
  23491016.386    -1727454.666 5  -1282179.86321
  20817557.9564    -222590.49146   -166874.26663
  22907589.1054   -2212661.70646  -1648107.72961
  21616752.886    -5597380.779 7  -4227187.70722
 92  5 25 17 52 29.9990000  0  5G18G16G19G11G 2
  21551849.1444    3825538.29847   2951209.96462
  23489882.7064   -1733409.67845  -1286820.19261
  20818175.9954    -219332.93646   -164335.91863
  22905620.4874   -2223015.20746  -1656175.39361
  21603811.6514   -5665388.31347  -4280180.52762
 92  5 25 17 52 59.9990000  0  5G18G16G19G11G 2
  21564480.5504    3891920.61447   3002936.36762
  23488840.917    -1738903.562 5  -1291101.19221
  20818830.0424    -215894.06846   -161656.28163
  22903757.9484   -2232789.32346  -1663791.58361
  21590924.112    -5733109.959 7  -4332950.58723
 92  5 25 17 53 29.9990000  0  5G18G16G19G11G 2
  21577171.847     3958611.388 7   3054903.12322
  23487885.644    -1743928.825 5  -1295017.06321
  20819518.4254    -212278.82046   -158839.21163
  22902009.3314   -2241987.20246  -1670958.75461
  21578092.839    -5800544.699 7  -4385497.06122
 92  5 25 17 53 59.9990000  0  5G18G16G19G11G 2
  21589918.6514    4025591.02647   3107094.96962
  23487018.112    -1748479.730 5  -1298563.28821
  20820238.9254    -208493.32846   -155889.48463
  22900368.3704   -2250610.86146  -1677678.48561
  21565314.4954   -5867688.88647  -4437817.14362
 92  5 25 17 54 29.9990000  0  5G18G16G19G11G 2
  21602717.487     4092857.250 7   3159510.12522
  23486246.667    -1752535.175 5  -1301723.41621
  20820994.2534    -204509.04846   -152784.85163
  22898839.1284   -2258649.30146  -1683942.19361
  21552593.2534   -5934544.31747  -4489912.22062
 92  5 25 17 54 59.9990000  0  5G18G16G19G11G 2
  21615574.065     4160416.436 7   3212153.55722
  23485564.511    -1756100.863 5  -1304501.91421
  20821792.7304    -200328.22446   -149527.06863
  22897417.7924   -2266107.66546  -1689753.89261
  21539921.8084   -6001125.42747  -4541793.54262
 92  5 25 17 55 29.9990000  0  5G18G16G19G11G 2
  21628493.0584    4228298.93147   3265048.93562
  23484983.8084   -1759178.51045  -1306900.13461
  20822623.1834    -195954.40746   -146118.90563
  22896111.0734   -2272984.58846  -1695112.54061
  21527306.1204   -6067426.97247  -4593457.02562
 92  5 25 17 55 59.9990000  0  5G18G16G19G11G 2
  21641482.2064    4296561.17547   3318240.23062
  23484493.058    -1761741.154 5  -1308897.07121
  20823501.1754    -191342.34146   -142525.09963
  22894920.2374   -2279241.32046  -1699987.91461
  21514746.8554   -6133424.99047  -4644883.98663
 92  5 25 17 56 29.9990000  0  5G18G16G19G11G 2
  21654545.9094    4365218.09647   3371739.05662
  23484103.1984   -1763800.06345  -1310501.47061
  20824423.9804    -186496.66246   -138749.26163
  22893846.3944   -2284879.30146  -1704381.13961
  21502245.1904   -6199124.47547  -4696078.33562
 92  5 25 17 56 59.9990000  0  5G18G16G19G11G 2
  21667684.7844    4434253.27247   3425532.61562
  23483804.308    -1765380.550 5  -1311733.06821
  20825383.7534    -181449.43846   -134816.37163
  22892886.8314   -2289924.04846  -1708312.11161
  21489796.7304   -6264537.18747  -4747049.22263
 92  5 25 17 57 29.9990000  0  5G18G16G19G11G 2
  21680890.7534    4503653.23647   3479610.42862
  23483595.4254   -1766481.34645  -1312590.89761
  20826384.1834    -176196.37646   -130723.09263
  22892041.0814   -2294374.30146  -1711779.83861
  21477405.972    -6329652.356 7  -4797788.26823
 92  5 25 17 57 59.9990000  0  5G18G16G19G11G 2
  21694163.6284    4573406.51747   3533963.55162
  23483475.5584   -1767092.78845  -1313067.40261
  20827423.8234    -170731.53146   -126464.78963
  22891308.6834   -2298220.67646  -1714777.01761
  21465072.2454   -6394459.44147  -4848287.23463
 92  5 25 17 58 29.9990000  0  5G18G16G19G11G 2
  21707501.5034    4643493.18647   3588576.46062
  23483451.675    -1767216.507 5
  20828504.5654    -165066.33746   -122050.37463
  22890690.3234   -2301468.71946  -1717307.97161
  21452800.323    -6458957.910 7  -4898545.72323
 92  5 25 17 58 59.9990000  0  5G18G16G19G11G 2
  21720897.7694    4713896.25947   3643435.90962
  23483521.378    -1766853.034 5
  20829619.8624    -159195.74446   -117475.91263
  22890188.5194   -2304117.44246  -1719371.90961
  21440584.4094   -6523147.31247  -4948563.38163
 92  5 25 17 59 29.9990000  0  5G18G16G19G11G 2
  21734356.7304    4784615.45747   3698541.70162
  23483681.1364   -1766017.17845  -1312229.45761
  20830773.2764    -153120.13146   -112741.68663
  22889796.8624   -2306167.50546  -1720969.35461
  21428427.6124   -6587037.32947  -4998347.74963
 92  5 25 17 59 59.9990000  0  5G18G16G19G11G 2
  21747875.925     4855657.856 7   3753899.32822
  23483932.4804   -1764707.51145  -1311209.00561
  20831970.5114    -146836.16946   -107845.11663
  22889520.7844   -2307615.73046  -1722097.84961
  21416326.0814   -6650628.24047  -5047899.05663
 92  5 25 18  0 29.9990000  0  5G18G16G19G11G 2
  21761455.737     4927027.591 7   3809512.02222
  23484268.581    -1762929.324 5  -1309823.45921
  20833208.8944    -140333.70346   -102778.27463
  22889362.1984   -2308460.97446  -1722756.48161
  21404282.3784   -6713913.80047  -5097212.42563
 92  5 25 18  0 59.9990000  0  5G18G16G19G11G 2
  21775100.9404    4998736.17247   3865388.75362
  23484695.776    -1760683.217 5  -1308073.30221
  20834490.0504    -133606.67046    -97536.45163
  22889313.4334   -2308705.87346
  21392298.690    -6776894.031 7  -5146287.88823
 92  5 25 18  1 29.9990000  0  5G18G16G19G11G 2
  21788815.761     5070796.554 7   3921539.61022
  23485216.206    -1757959.123 5  -1305950.72221
  20835809.8864    -126662.02346    -92125.05663
  22889379.8314   -2308348.46346
  21380372.190    -6839566.220 7  -5195123.31623
 92  5 25 18  1 59.9990000  0  5G18G16G19G11G 2
  21802593.480     5143200.179 7   3977957.93122
  23485825.3314   -1754754.57545  -1303453.71361
  20837173.292     -119500.947 6    -86545.02423
  22889561.9334   -2307396.94846  -1721927.37561
  21368502.276    -6901937.696 7  -5243724.40923
 92  5 25 18  2 29.9990000  0  5G18G16G19G11G 2
  21816438.644     5215963.568 7   4034656.58522
  23486526.5584   -1751052.38845  -1300568.98861
  20838584.901     -112102.289 6    -80779.86623
  22889857.261    -2305835.810 6  -1720710.91421
  21356693.331    -6963998.739 7  -5292083.61123
 92  5 25 18  2 59.9990000  0  5G18G16G19G11G 2
  21830352.3394    5289073.56147   4091625.32262
  23487329.112    -1746858.800 5  -1297301.33521
  20840029.448     -104485.578 6    -74844.79423
  22890274.2224   -2303671.74646  -1719024.63961
  21344939.3394   -7025763.74547  -5340212.13163
 92  5 25 18  3 29.9990000  0  5G18G16G19G11G 2
  21844325.2924    5362505.25347   4148844.73362
  23488216.8154   -1742193.05745  -1293665.76161
  20841520.2614     -96654.80946    -68742.92763
  22890797.8624   -2300910.54546  -1716873.06961
  21333241.3704   -7087237.00847  -5388113.31463
 92  5 25 18  3 59.9990000  0  5G18G16G19G11G 2
  21858357.261     5436250.150 6   4206308.20022
  23489192.3084   -1737048.93745  -1289657.41761
  20843053.065      -88597.058 7    -62464.18423
  22891435.6754   -2297548.10246  -1714252.99161
  21321599.4804   -7148418.37347  -5435787.05463
 92  5 25 18  4 29.9990000  0  5G18G16G19G11G 2
  21872448.7304    5510290.28147   4264001.72862
  23490262.7374   -1731433.23445  -1285281.59961
  20844629.269      -80330.942 6    -56023.08423
  22892190.8154   -2293587.12946  -1711166.52661
  21310013.026    -7209310.489 7  -5483235.41423
 92  5 25 18  4 59.9990000  0  5G18G16G19G11G 2
  21886589.995     5584608.481 6   4321911.91022
  23491420.3084   -1725353.48345  -1280544.21861
  20846238.5194     -71867.59946    -49428.29663
  22893057.1364   -2289039.27946  -1707622.76461
  21298477.214    -7269927.691 7  -5530469.55223
 92  5 25 18  5 29.9990000  0  5G18G16G19G11G 2
  21900784.003     5659204.034 7   4380038.22022
  23492665.105    -1718804.315 5  -1275441.03121
  20847886.823      -63198.073 6    -42672.84323
  22894033.847    -2283907.257 6  -1703623.81521
  21286993.433    -7330273.954 7  -5577492.56223
 92  5 25 18  5 59.9990000  0  5G18G16G19G11G 2
  21915036.972     5734093.994 7   4438393.94322
  23493999.8704   -1711779.71445  -1269967.40161
  20849577.644      -54320.456 6    -35755.24723
  22895121.136    -2278186.704 6  -1699166.26021
  21275562.128    -7390347.586 7  -5624303.13623
 92  5 25 18  6 29.9990000  0  5G18G16G19G11G 2
  21929346.558     5809290.586 7   4496988.58722
  23495427.440    -1704298.878 5  -1264138.24421
  20851310.331      -45214.628 6    -28659.82923
  22896323.737    -2271876.793 6  -1694249.47921
  21264184.7534   -7450134.83247  -5670890.54863
 92  5 25 18  6 59.9990000  0  5G18G16G19G11G 2
  21943713.050     5884796.759 7   4555824.47122
  23496931.308    -1696375.002 5  -1257963.87021
  20853088.8004     -35864.86346    -21374.31463
  22897631.183    -2264985.948 6  -1688880.00821
  21252861.526    -7509633.593 7  -5717253.16723
 92  5 25 18  7 29.9990000  0  5G18G16G19G11G 2
  21958143.870     5960620.565 7   4614907.85622
  23498521.401    -1688025.429 5  -1251457.77621
  20854913.5264     -26268.27746    -13896.47563
  22899054.4724   -2257515.54046  -1683058.94061
  21241598.105    -7568829.586 7  -5763379.86823
 92  5 25 18  7 59.9990000  0  5G18G16G19G11G 2
  21972634.105     6036766.054 7   4674241.90122
  23500198.511    -1679243.760 5  -1244614.99221
  20856789.339      -16413.726 6     -6217.62423
  22900589.8554   -2249454.44946  -1676777.59761
  21230392.362    -7627710.392 7  -5809260.97323
 92  5 25 18  8 29.9990000  0  5G18G16G19G11G 2
  21987180.105     6113220.629 6   4733816.79721
  23501950.980    -1670009.574 5  -1237419.57721
  20858712.745       -6305.050 6      1659.24323
  22902238.3784   -2240793.12446  -1670028.53861
  21219250.448    -7686269.852 7  -5854891.67823
 92  5 25 18  8 59.9990000  0  5G18G16G19G11G 2
  22001787.722     6189975.827 6   4793625.95021
  23503799.4954   -1660300.81945  -1229854.38461
  20860679.394        4026.896 7      9710.08823
  22903999.433    -2231527.985 6  -1662808.98821
  21208167.050    -7744509.153 7  -5900272.91923
 92  5 25 18  9 29.9990000  0  5G18G16G19G11G 2
  22016449.800     6267014.209 6   4853655.75422
  23505733.925    -1650124.354 5
  20862678.5654      14544.96846
  22905875.753    -2221668.250 6  -1655126.09021
  21197141.8944   -7802450.11847  -5945421.69163
 92  5 25 18  9 59.9990000  0  5G18G16G19G11G 2
  22031160.300     6344322.377 6   4913895.77522
  23507763.4484   -1639475.01445
  20864716.4014      25237.05146
  22907863.2064   -2211214.68446
  21186171.206    -7860096.620 7  -5990341.01323
 92  5 25 18 10 29.9990000  0  5G18G16G19G11G 2
  22045928.378     6421933.578 6   4974371.94321
  23509885.0894   -1628338.80345
  20866785.7374      36115.29447     34713.96463
  22909973.4804   -2200145.29346  -1638354.98861
  21175264.886    -7917414.513 7  -6035004.26923
 92  5 25 18 10 59.9990000  0  5G18G16G19G11G 2
  22060757.042     6499862.268 6   5035095.49721
  23512090.636    -1616730.630 5
  20868897.5814      47201.33346     43352.41663
  22912195.769    -2188462.251 6
  21164420.175    -7974397.466 7  -6079406.54423
 92  5 25 18 11 29.9990000  0  5G18G16G19G11G 2
  22075642.472     6578088.732 6   5096051.06921
  23514383.581    -1604682.003 5        -0.37631
  20871047.5504      58507.22046     52162.17463
  22914532.808    -2176185.049 6  -1619684.72621
  21153636.112    -8031069.235 7  -6123566.32923
 92  5 25 18 11 59.9990000  0  5G18G16G19G11G 2
  22090585.284     6656603.226 6   5157231.08521
  23516758.4644   -1592200.17245      9725.65661
  20873242.4804      70053.75846     61159.45463
  22916980.519    -2163319.586 6  -1609659.72721
  21142911.284    -8087426.441 7  -6167480.99823
 92  5 25 18 12 29.9990000  0  5G18G16G19G11G 2
  22105580.401     6735408.596 6   5218637.76821
  23519221.378    -1579280.609 5     19792.78821
  20875491.7224      81867.88846     70365.24663
  22919542.276    -2149860.114 6  -1599171.86421
  21132246.230    -8143473.382 7  -6211153.90323
 92  5 25 18 12 59.9990000  0  5G18G16G19G11G 2
  22120631.581     6814497.458 6   5280265.34421
  23521757.909    -1565917.370 5     30205.65121
  20877796.5114      93980.86446     79803.90863
  22922217.917    -2135800.903 6  -1588216.66621
  21121636.034    -8199225.444 7  -6254597.03123
 92  5 25 18 13 29.9990000  0  5G18G16G19G11G 2
  22135731.472     6893848.965 6   5342097.58021
  23524384.7144   -1552117.36745     40958.82761
  20880155.612      106368.419 6     89456.51823
  22925000.612    -2121155.071 6  -1576804.37921
  21111079.659    -8254704.561 7  -6297827.47823
 92  5 25 18 13 59.9990000  0  5G18G16G19G11G 2
  22150879.870     6973462.859 6   5404134.26721
  23527097.034    -1537878.847 5     52053.70921
  20882562.0974     119013.21746     99309.58463
  22927900.011    -2105927.984 6  -1564939.16621
  21100573.0194   -8309918.96347  -6340851.66163
 92  5 25 18 14 29.9990000  0  5G18G16G19G11G 2
  22166085.886     7053355.318 6   5466388.02821
  23529891.0814   -1523191.16945     63498.58261
  20885016.972      131908.875 6    109358.11523
  22930913.847    -2090111.630 6  -1552614.78321
  21090117.1514   -8364861.14447  -6383663.72363
 92  5 25 18 14 59.9990000  0  5G18G16G19G11G 2
  22181342.3004    7133528.07946   5528860.20061
  23532770.8474   -1508056.95845     75291.39361
  20887515.714      145038.817 6    119589.21323
  22934032.4484   -2073703.42346  -1539829.21261
  21079716.980    -8419516.650 7  -6426252.39723
 92  5 25 18 15 29.9990000  0  5G18G16G19G11G 2
  22196650.8474    7213977.30146   5591547.78161
  23535738.792    -1492479.081 5     87429.91621
  20890053.5424     158383.03546    129987.28963
  22937266.855    -2056706.916 6  -1526585.22021
  21069373.683    -8473869.511 7  -6468605.25423
 92  5 25 18 15 59.9990000  0  5G18G16G19G11G 2
  22212012.784     7294701.568 6   5654449.69821
  23538782.6444   -1476466.93645     99906.82361
  20892633.7534     171946.59646    140556.27563
  22940611.4804   -2039126.59646  -1512886.30461
  21059088.6754   -8527918.01847  -6510720.95963
 92  5 25 18 16 29.9990000  0  5G18G16G19G11G 2
  22227424.987     7375695.903 6   5717562.04621
  23541915.3864   -1460024.17645    112719.27561
  20895257.339      185739.388 7    151303.88223
  22944069.237    -2020961.241 6  -1498731.52421
  21048864.2304   -8581648.18347  -6552588.60263
 92  5 25 18 16 59.9990000  0  5G18G16G19G11G 2
  22242887.0424    7456950.93746   5780877.55361
  23545122.6054   -1443160.09445    125860.03661
  20897927.4404     199765.66746    162233.42763
  22947636.276    -2002218.357 6  -1484126.74021
  21038699.503    -8635067.498 7  -6594214.01523
